CW9769 Weather Reports


time (UTC)temp
F
wind
direction
speed
knots
gust
knots
rain 1hr
in
rain 24hr
in
rain mn
in
humidity
%
barometer
mb
20260503224008 58 298 10.4 20.9 0.00 0.00 0.00 40 1011.7
20260503222904 59 302 12.2 20.9 0.00 0.00 0.00 40 1011.7
20260503221904 59 302 11.3 20.9 0.00 0.00 0.00 40 1011.7
20260503220902 59 293 12.2 20.0 0.00 0.00 0.00 40 1011.7
20260503215831 59 306 10.4 19.1 0.00 0.00 0.00 41 1011.7
20260503214830 59 294 9.6 20.0 0.00 0.00 0.00 41 1011.7
20260503213829 60 287 15.6 20.0 0.00 0.00 0.00 40 1011.8
20260503212828 60 298 12.2 22.6 0.00 0.00 0.00 39 1011.8
20260503211827 60 302 13.0 23.5 0.00 0.00 0.00 38 1011.8
20260503210826 61 295 12.2 22.6 0.00 0.00 0.00 41 1011.8
20260503205723 62 289 12.2 22.6 0.00 0.00 0.00 42 1012.2
20260503204722 61 311 10.4 20.9 0.00 0.00 0.00 41 1012.2
20260503203650 60 291 12.2 20.9 0.00 0.00 0.00 39 1012.1
20260503202649 60 298 13.9 20.0 0.00 0.00 0.00 39 1012.5
20260503201648 60 267 10.4 20.9 0.00 0.00 0.00 41 1012.5
20260503200646 61 283 9.6 21.7 0.00 0.00 0.00 39 1012.5
20260503195646 61 304 12.2 23.5 0.00 0.00 0.00 42 1012.9
20260503194645 60 275 13.0 21.7 0.00 0.00 0.00 40 1012.8
20260503193613 60 283 10.4 20.0 0.00 0.00 0.00 43 1013.2
20260503192611 61 285 10.4 20.9 0.00 0.00 0.00 41 1013.2
20260503191610 61 285 12.2 20.9 0.00 0.00 0.00 40 1013.5
20260503190609 60 284 8.7 22.6 0.00 0.00 0.00 40 1013.5
20260503185537 60 300 9.6 18.2 0.00 0.00 0.00 39 1013.8
20260503184537 60 287 10.4 19.1 0.00 0.00 0.00 38 1013.9
20260503183536 60 297 10.4 20.9 0.00 0.00 0.00 42 1013.8
20260503182535 60 300 10.4 21.7 0.00 0.00 0.00 38 1013.8
20260503181535 60 289 13.9 21.7 0.00 0.00 0.00 39 1014.2
20260503180533 59 296 11.3 18.2 0.00 0.00 0.00 43 1014.1
20260503175533 59 301 8.7 18.2 0.00 0.00 0.00 43 1014.5
20260503174532 60 282 11.3 18.2 0.00 0.00 0.00 44 1014.5
20260503173531 60 302 11.3 15.6 0.00 0.00 0.00 44 1014.5
20260503172530 59 304 8.7 17.4 0.00 0.00 0.00 47 1014.5
20260503171529 59 295 11.3 18.2 0.00 0.00 0.00 47 1015.2
20260503170528 58 300 10.4 19.1 0.00 0.00 0.00 48 1014.8
20260503150222 53 310 10.4 17.4 0.00 0.00 0.00 51 1016.1
20260503140146 50 272 10.4 14.8 0.00 0.00 0.00 52 1016.0
20260503131142 47 282 6.1 9.6 0.00 0.00 0.00 56 1016.2
20260503130141 45 275 5.2 9.6 0.00 0.00 0.00 62 1016.2
20260503110825 35 276 2.6 6.1 0.00 0.01 0.00 80 1015.9
20260503081607 36 304 1.7 4.3 0.00 0.03 0.00 75 1016.0
20260503080607 36 303 1.7 4.3 0.00 0.03 0.00 76 1015.6
20260503072603 37 296 2.6 5.2 0.00 0.03 0.00 77 1015.7
20260503071602 37 297 1.7 4.3 0.00 0.03 0.00 78 1015.7
20260503070601 37 301 2.6 4.3 0.00 0.03 0.00 78 1015.7
20260503054554 37 298 1.7 4.3 0.00 0.04 0.00 83 1016.0
20260503053553 37 291 0.9 2.6 0.00 0.04 0.00 84 1016.0
20260503052553 37 291 0.9 2.6 0.00 0.04 0.00 83 1016.0
20260503051552 38 292 0.9 3.5 0.00 0.04 0.00 83 1016.0
20260503050551 38 273 2.6 3.5 0.00 0.04 0.00 82 1016.0
20260503045551 38 272 2.6 3.5 0.00 0.04 0.00 82 1016.0
20260503044519 38 270 0.9 2.6 0.00 0.04 0.00 82 1016.0
20260503043518 39 279 1.7 2.6 0.00 0.04 0.00 80 1016.0
20260503042517 39 268 0.9 2.6 0.00 0.04 0.00 79 1016.0
20260503041516 40 258 1.7 4.3 0.00 0.04 0.00 78 1016.1
20260503040516 40 262 2.6 4.3 0.00 0.04 0.00 77 1016.1
20260503035515 41 260 1.7 3.5 0.00 0.04 0.04 77 1016.1
20260503034514 41 259 1.7 4.3 0.00 0.04 0.04 76 1016.1
20260503033442 41 259 1.7 3.5 0.00 0.04 0.04 76 1016.4
20260503032441 41 253 1.7 4.3 0.00 0.04 0.04 76 1016.1
20260503031410 41 258 2.6 4.3 0.00 0.04 0.04 75 1016.4
20260503030409 41 252 2.6 4.3 0.00 0.06 0.04 75 1016.4
20260503025336 41 258 2.6 5.2 0.00 0.10 0.04 75 1016.3
20260503024336 41 253 1.7 5.2 0.00 0.15 0.04 76 1016.3
20260503023303 41 251 1.7 4.3 0.00 0.15 0.04 76 1016.6
20260503022304 41 255 1.7 4.3 0.00 0.15 0.04 76 1016.6
20260503021200 41 245 0.9 3.5 0.00 0.15 0.04 77 1016.6
20260503020159 41 246 0.9 4.3 0.00 0.15 0.04 78 1016.3
20260503015158 41 255 1.7 4.3 0.00 0.15 0.04 77 1016.3
20260503014157 41 269 1.7 2.6 0.00 0.15 0.04 76 1016.6
20260503013155 41 241 1.7 4.3 0.00 0.15 0.04 75 1016.3
20260503012154 42 246 0.9 4.3 0.00 0.15 0.04 73 1016.3
20260503011153 42 245 1.7 3.5 0.00 0.15 0.04 73 1016.3
20260503010152 42 256 0.9 1.7 0.00 0.15 0.04 73 1016.3
20260503005151 42 256 0.9 2.6 0.00 0.15 0.04 72 1016.3
20260503004048 42 256 0.9 2.6 0.00 0.15 0.04 70 1016.3
20260503003047 42 263 0.9 1.7 0.00 0.15 0.04 69 1016.3
20260503002046 43 325 0.9 1.7 0.00 0.15 0.04 65 1015.9
20260503001046 43 325 0.9 0.9 0.00 0.15 0.04 67 1015.9
20260503000045 43 325 0.9 1.7 0.00 0.15 0.04 65 1016.3
20260502235043 43 325 0.9 1.7 0.00 0.15 0.04 64 1016.3
20260502234011 43 325 0.9 2.6 0.00 0.15 0.04 61 1015.9
20260502233010 44 325 0.9 2.6 0.00 0.15 0.04 62 1015.9
20260502232009 44 10 0.9 2.6 0.00 0.15 0.04 58 1015.9
20260502231008 44 10 0.9 2.6 0.00 0.15 0.04 61 1015.9
20260502230008 44 348 1.7 5.2 0.00 0.15 0.04 60 1015.9
20260502225007 43 355 1.7 7.0 0.00 0.15 0.04 61 1016.3